www.pogodaiklimat.ru

Погода и климат >> Архив погоды >> Сенегал >> Сент-Луис


ПОГОДА в Сент-Луисе

  • Прогноз погоды в Сент-Луисе
  • Монитор погоды в Сент-Луисе

АРХИВ ПОГОДЫ в Сент-Луисе

Время (UTC), дата Ветер
(напр.,м/с)
 
Видим.   Явления Облачность Т
(С)
Тd
(С)
f
(%)
Тe
(С)
Тes
(С)
Комфортность P
(гПа)
Po
(гПа)
Тmin
(С)
Tmax
(С)
R
(мм)
R24
(мм)
S
(см)
09 11.02 В 3 10 км 9/0
[Ci sp]
+24.6 +25.1 100 +34 +37 очень
душно
1013.9 1013.4
12 11.02 ЮВ 6 10 км 8/0
[Ci sp]
+33.4 +5.7 18 +31 +36 жарко 1013.9 1013.4
15 11.02 В 5 10 км 6/0
[Ci sp]
+37.9 +8.2 16 +36 +41 очень
жарко
1011.4 1010.9
18 11.02 В 4 10 км 8/0
[Ci sp]
+36.5 +10.2 20 +35 +36 очень
жарко
1010.7 1010.2 +38.0
21 11.02 В 2 10 км 4/0
[Ci sp]
+29.6 +7.1 24 +28 +28 жарко 1012.5 1012.0
00 12.02 СВ 1 10 км 4/0
[Ci sp]
+25.3 +7.8 33 +25 +25 комфорт 1013.3 1012.8
03 12.02 СВ 1 10 км 3/0
[Ci sp]
+23.1 +6.4 34 +24 +24 комфорт 1012.7 1012.2
06 12.02 СВ 2 10 км ясно +21.0 +5.1 35 +22 +22 комфорт 1012.7 1012.2 +20.5
09 12.02 СВ 4 10 км 8/0
[Ac As]
+20.5 +5.4 37 +21 +22 комфорт 1014.7 1014.2
12 12.02 В 3 10 км 8/0
[Ac As]
+33.5 +5.9 18 +31 +37 жарко 1014.3 1013.8
15 12.02 В 4 10 км 5/0
[Ci sp]
+36.9 +8.4 18 +35 +43 очень
жарко
1011.5 1011.0
18 12.02 В 4 10 км 9/0
[Ac trans Ci sp]
+35.5 +8.4 19 +34 +34 очень
жарко
1010.8 1010.3 +37.0
21 12.02 СВ 3 10 км 6/0
[Ac trans Ci sp]
+28.5 +18.1 53 +33 +33 очень
душно
1012.8 1012.3
00 13.02 СВ 1 10 км 8/0
[Ac As]
+27.0 +7.8 30 +27 +27 жарко 1014.1 1013.6
03 13.02 В 2 10 км 5/0
[Ac trans Ci sp]
+24.5 +6.2 31 +24 +24 комфорт 1012.8 1012.3
06 13.02 В 1 10 км 5/0
[Ac trans Ci sp]
+21.7 +5.9 36 +22 +22 комфорт 1013.0 1012.5 +20.5
09 13.02 В 4 10 км 6/0
[Ac cast]
+24.0 +6.8 33 +24 +25 комфорт 1014.6 1014.1
12 13.02 В 6 10 км 6/0
[Ac As]
+31.8 +7.6 22 +30 +34 жарко 1014.6 1014.1
15 13.02 В 5 5000 м пыль 8/0
[Ac cast]
+35.6 +1.0 11 +32 +35 жарко 1011.4 1010.9
18 13.02 В 4 5000 м пыль 9/0
[Ac cast]
+34.5 +4.3 15 +32 +32 жарко 1010.7 1010.2 +36.5
21 13.02 СВ 3 5000 м пыль 6/0
[Ac cast]
+30.0 +7.3 24 +29 +29 жарко 1012.4 1011.9
00 14.02 С 3 8000 м пыль ясно +26.4 +3.6 23 +25 +25 комфорт 1014.4 1013.9
03 14.02 С 3 9000 м пыль ясно +23.3 +1.0 23 +22 +22 комфорт 1013.7 1013.2
06 14.02 С 3 10 км ясно +20.5 +1.3 28 +21 +21 комфорт 1014.0 1013.5 +19.9
09 14.02 СВ 4 10 км 8/0
[Ac cast Ci sp]
+20.0 +0.3 27 +20 +22 1015.7 1015.2
12 14.02 ЮВ 3 10 км 8/0
[Ac cast Ci sp]
+31.2 -0.2 13 +28 +38 жарко 1016.0 1015.5
15 14.02 В 3 10 км 6/0
[Ci sp]
+36.6 +5.4 15 +34 +43 очень
жарко
1012.8 1012.3
18 14.02 С 2 10 км 8/0
[Ci sp]
+31.0 +14.8 37 +33 +34 душно 1012.5 1012.0 +37.5
21 14.02 С 3 10 км 8/0
[Ac cast Ci sp]
+23.6 +10.5 44 +25 +25 комфорт 1014.8 1014.3
00 15.02 С 5 10 км 6/0
[Ac cast Ci sp]
+22.1 +10.0 46 +24 +24 комфорт 1016.4 1015.9
03 15.02 С 3 10 км 8/0
[Ac cast Ci sp]
+20.0 +11.8 59 +22 +22 комфорт 1015.0 1014.5
06 15.02 С 3 10 км 8/0
[Ac cast Ci sp]
+18.6 +13.5 72 +19 +19 1014.9 1013.4 +18.1
09 15.02 СВ 3 10 км 8/0
[Ci sp]
+21.2 +15.2 69 +24 +27 комфорт 1015.9 1015.4
12 15.02 В 3 10 км 9/0
[Ci sp]
+33.0 +6.2 19 +31 +42 жарко 1015.4 1014.9
15 15.02 С 5 10 км 9/0
[Ci sp]
+32.5 +12.0 29 +27 +33 жарко 1012.9 1012.4
18 15.02 С 4 10 км 9/0
[Ci sp]
+28.0 +12.1 37 +29 +30 жарко 1012.7 1012.2 +36.8
21 15.02 С 3 10 км 9/0
[Cs]
+22.6 +10.5 46 +24 +24 комфорт 1014.2 1013.7
00 16.02 С 5 10 км 9/0
[Cs]
+21.5 +12.6 57 +24 +24 комфорт 1015.2 1014.7
03 16.02 С 4 10 км 9/0
[Ci sp]
+19.9 +14.3 70 +22 +22 комфорт 1013.4 1012.9
06 16.02 С 4 10 км 8/0
[Ci sp]
+19.3 +14.3 73 +21 +21 комфорт 1013.1 1012.6 +18.6
09 16.02 СВ 4 10 км 8/0
[Ci sp]
+19.0 +14.6 76 +20 +22 1015.2 1014.7
12 16.02 СВ 7 10 км 6/0
[Ci sp]
+25.0 +10.8 41 +26 +30 жарко 1015.9 1015.4
18 16.02 С 5 8000 м 9/0
[Ac cast Ci sp]
+23.6 +13.1 52 +26 +26 жарко 1012.9 1012.4 +28.0
21 16.02 С 5 10 км 9/0
[Ac trans Cs]
+19.1 +14.9 77 +20 +20 1014.6 1014.1
00 17.02 С 4 10 км 8/0
[Ci sp]
+18.9 +15.4 80 +20 +20 1015.8 1015.3
03 17.02 С 7 10 км 6/0
[Ci sp]
+18.4 +15.5 83 +18 +18 1014.2 1013.7
06 17.02 С 6 10 км 5/0
[Ci sp]
+17.6 +15.7 89 +17 +17 1013.4 1012.9 +17.3
09 17.02 С 4 10 км 9/0
[Ac As Ci sp]
+18.0 +12.9 72 +18 +19 1014.4 1013.9
12 17.02 СВ 4 10 км 8/0
[Ac trans Ci sp]
+27.1 +8.0 30 +27 +34 жарко 1014.8 1014.3
15 17.02 С 5 10 км 8/0
[Ci sp]
+27.0 +13.4 43 +29 +35 жарко 1012.6 1012.1
18 17.02 С 4 10 км 8/0
[Ci sp]
+24.6 +13.0 48 +27 +27 жарко 1011.8 1011.3 +31.6
21 17.02 С 4 10 км 8/0
[Ci sp]
+19.6 +13.9 70 +21 +21 комфорт 1013.3 1012.8
03 18.02 С 4 10 км 8/0
[Ci sp]
+18.2 +15.0 82 +18 +18 1013.3 1012.8
06 18.02 С 4 10 км 8/0
[Ac trans Ci sp]
+17.6 +15.6 88 +17 +17 1012.9 1012.4 +17.1

 

Местоположение метеостанции Сент-Луис (Сенегал): широта 16.05 долгота -16.45 высота над уровнем моря 4 м.

В архиве по умолчанию представлена погода в Сент-Луисе за последнюю неделю. Архивные данные за месяц целиком и за предыдущие месяцы, начиная с января 2011 года, Вы можете получить, выбрав интересующий диапазон дат из раскрывающегося списка и нажав кнопку "Ввод!".


*Определитесь, кто Вы:
робот инопланетянин человек

Внимание! Время в таблицах - всемирное. Для получения местного времени необходимо прибавить поправку, которая равна 0 ч.

Смотрите также архив погоды в соседних городах и на ближайших метеорологических станциях:

Погода в Росо (Мавритания) (85 км)
Погода в Диурбеле (Сенегал) (157 км)
Погода в Лингере (Сенегал) (162 км)
Погода в Подоре (Сенегал) (172 км)
Погода в Дакаре (Сенегал) (185 км)
Погода в Каолаке (Сенегал) (218 км)
Погода в Нуакшоте (Мавритания) (234 км)
Погода в Бутилимите (Мавритания) (250 км)
Погода в Сапу (Гамбия) (281 км)
Погода в Кауере (Гамбия) (287 км)

Пояснения к столбцам:

Ветер - указаны скорость ветра в м/с - средняя за 10 мин, порывы в срок и между сроками (в фигурных скобках) и направление, откуда дует ветер: С - северный, СВ - северо-восточный, В - восточный, ЮВ - юго-восточный, Ю - южный, ЮЗ - юго-западный, З - западный, СЗ - северо-западный.
Видимость - горизонтальная дальность видимости в метрах или километрах. При видимости от 1 до 10 км при отсутствии осадков обычно наблюдается дымка, при ухудшении видимости до 1 км и менее - туман. В сухую погоду видимость может ухудшаться дымом, пылью или мглою.
Явления - указаны атмосферные явления, наблюдавшиеся в срок или в последний час перед сроком; фигурными скобками обозначены явления, наблюдавшиеся между сроками (за 1-3 часа до срока); квадратными скобками обозначены град или гололедные отложения с указанием их диаметра в мм.
Облачность - указаны через наклонную черту общая и нижняя облачность в баллах и высота нижней границы облаков в метрах; квадратными скобками обозначены формы облаков: Ci - перистые, Cs - перисто-слоистые, Cc - перисто-кучевые, Ac - высококучевые, As - высокослоистые, Sc - слоисто-кучевые, Ns - слоисто-дождевые, Cu - кучевые, Cb - кучево-дождевые. Подробнее классификацию облаков см. в Атласе облаков (PDF).
T - Температура воздуха - температура, измеренная на высоте 2 м над землей.
Td - Температура точки росы - температура, при понижении до которой содержащийся в воздухе водяной пар достигнет насыщения.
f - Относительная влажность воздуха - влажноcть воздуха, измеренная на высоте 2 м над землей.
Te - Эффективная температура - температура, которую ощущает одетый по сезону человек в тени. Характеристика душности погоды. При расчете учитывается влияние влажности воздуха и скорости ветра на теплоощущения человека.
Tes - Эффективная температура на солнце - температура, которую ощущает человек, с поправкой на солнечный нагрев. Характеристика знойности погоды. Зависит от высоты солнца над горизонтом, облачности и скорости ветра. Ночью, в пасмурную погоду, а также при ветре 12 м/с и более поправка равна нулю.
P - Атмосферное давление - приведенное к уровню моря атмосферное давление.
Po - Атмосферное давление - измеренное на уровне метеостанции атмосферное давление.
Tmin - Минимальная температура - минимум температуры воздуха на высоте 2 м над землей.
Tmax - Максимальная температура - максимум температуры воздуха на высоте 2 м над землей.
R - Количество осадков - Количество выпавших осадков за период времени, мм. При наведении курсора мыши на число - период времени, за который выпало указанное количество осадков.
R24 - Количество осадков - Количество выпавших осадков за 24 часа, мм.
S - Снежный покров - Высота снежного покрова, см. При наведении курсора мыши на число - состояние снежного покрова и степень покрытия местности в баллах.